Location: Erlenbrunn
(49.1717°N, 7.6142°E)
Time: 16:18:46
(UTC+00:00)

BREEZE-M DEB (TANK) - Visible Passes

Search period start: 16 April 2021 00:00
Search period end: 26 April 2021 00:00
Orbit: 338 x 20313 km, 49.3° (Epoch: 15 April)

Date Brightness Start Highest point End Pass type
(mag) Time Alt. Az. Time Alt. Az. Time Alt. Az.
16 Apr 7.2 23:26:53 10° SSW 00:55:00 55° SSE 01:06:42 10° ENE visible
17 Apr 7.2 23:17:03 10° SSW 00:46:56 55° SSE 00:58:52 10° ENE visible
18 Apr 7.2 23:07:12 10° SSW 00:38:51 55° SSE 00:51:01 10° ENE visible
19 Apr 7.3 22:57:21 10° SSW 00:30:47 55° SE 00:43:09 10° ENE visible
20 Apr 7.3 22:47:31 10° SSW 00:22:40 54° SE 00:35:17 10° ENE visible
21 Apr 7.3 22:37:41 10° SSW 00:14:33 54° SE 00:27:24 10° ENE visible
22 Apr 7.4 22:27:52 10° SSW 00:06:25 54° SE 00:19:31 10° ENE visible
23 Apr 7.4 22:18:03 10° SSW 23:58:16 54° SE 00:11:38 10° ENE visible
24 Apr 7.4 22:08:15 10° SSW 23:50:07 54° SE 00:03:44 10° ENE visible
25 Apr 7.5 21:58:28 10° SSW 23:41:57 54° SE 23:55:49 10° ENE visible
